User: anonymous   Login
Location: Goheenville
(40.9070°N, 79.3720°W)
Time: 02:31:44
(UTC-04:00)
Language:

NOAA 11 - Orbit

View from above orbital plane
View from above orbital plane
View from above satellite
View from above satellite

Ground track
Ground track

The orbit data is extracted from the following two-line orbital elements,

1 19531U 88089A   16207.27020032 -.00000018  00000-0  12358-4 0  9997
2 19531  98.5992 272.2899 0010107 254.6519 105.3539 14.15190844436515
Epoch (UTC): 25 July 2016 06:29:05
Eccentricity: 0.0010107
inclination: 98.5992°
perigee height: 834 km
apogee height: 849 km
right ascension of ascending node: 272.2899°
argument of perigee: 254.6519°
revolutions per day: 14.15190844
mean anomaly at epoch: 105.3539°
orbit number at epoch: 43651

The dashed part of the orbit path shows where the satellite is in the earth's shadow,  

DLR